Weather in Polyana

Russia / Komi Republic     63°32′40″N   54°04′31″E
temp.,
°C
wind,
m/s
gust,
m/s
humid.,
%
clouds,
%
prec.,
mm/h
press.,
hPa
HPBL,
m
18 may, tue
tue1800:00+8n228832 0.0 101932
03:00+7n2384100 0.0 102166
06:00+10nne23592 0.0 1022323
09:00+15nne22381 0.0 1023906
12:00+18nne12325 0.0 10231190
15:00+20ene11315 0.0 10231442
18:00+19se113649 0.0 1022527
21:00+14se23539 0.0 102350
19 may, wed
wed1900:00+12sse2662100 0.0 1023113
03:00+11sse286974 0.0 1023157
06:00+15s38545 0.0 1022339
09:00+21ssw47425 0.0 10201136
12:00+24sw5733100 0.0 10191548
15:00+26sw573148 0.0 10171676
18:00+25sw483734 0.0 1016688
21:00+20sw312523 0.0 1017269
20 may, thu
thu2000:00+18sw3125552 0.0 1017302
03:00+16wsw396576 0.0 1017209
06:00+20wsw375326 0.0 1017341
09:00+25sw453863 0.0 10171032
12:00+27sw453048 0.0 10161759
15:00+27sw452589 0.0 10151882
18:00+25sw3730100 0.0 1014530
21:00+20ssw25445 0.0 101577
21 may, fri
fri2100:00+17ssw28515 0.0 1014130
03:00+16ssw295740 0.0 1015160
06:00+20ssw36450 0.0 1014318
09:00+26ssw46280 0.0 10131950
12:00+28s57230 0.0 10112380
15:00+28ssw68241 0.0 10092677
18:00+26s49250 0.0 10092427
21:00+22sse413385 0.0 1008616
22 may, sat
sat2200:00+19ssw411535 0.0 1007727
03:00+16ssw511744 0.0 1007984
06:00+17sw596823 0.0 10071046
09:00+17wsw597184 1.1 10081215
12:00+19w693978 0.4 10101951
15:00+21wsw5102544 0.4 10102850
18:00+20wsw41030100 0.0 10092660
21:00+16wnw2739100 0.0 1011305